Dewpoint
59 58 58 59 59 59 59 59 59 59 60 59 59 60 59 59 59 59 59 59 59 59 60 60 61 60 59 59 59 59 59 45 28 23 23 26 32 59 59 60 59 59 57 36 26 24 14 10 8 10 15 17 21 21 25 26 26 44 35 33 32 31 26 25 22 24 28 27 25 26 26 25 30 32 33 36 34 34 30 28 30 34 39 41 41 44 45 45
58 58 59 59 59 58 59 59 59 60 60 60 60 60 60 60 60 59 59 59 59 59 59 60 61 60 59 58 58 59 55 40 26 20 24 36 59 61 60 62 61 59 53 27 18 16 12 5 8 13 13 17 23 22 24 25 24 35 35 30 25 27 28 29 27 27 25 24 24 27 26 22 21 21 31 32 30 30 28 30 32 33 33 39 42 42 44 44
58 59 58 59 59 58 58 58 59 59 59 60 60 60 60 60 60 60 59 60 60 59 60 60 61 60 59 59 58 59 50 33 22 17 28 59 59 60 57 59 60 59 38 25 21 19 15 12 11 13 13 14 23 21 25 22 23 29 32 28 27 26 23 23 28 27 26 25 22 22 21 21 21 22 22 24 26 28 29 31 32 35 34 34 41 42 42 42
58 59 58 58 59 58 58 58 58 59 59 59 59 59 60 60 59 59 60 60 60 60 59 60 60 60 60 59 59 55 40 36 22 25 31 58 58 58 57 57 58 57 43 32 23 19 16 12 9 12 14 14 18 18 25 25 30 26 27 27 27 24 23 24 26 26 24 22 22 21 20 21 22 23 25 25 27 27 29 33 35 36 34 34 39 41 43 43
58 58 58 58 58 58 58 58 58 58 58 58 58 59 59 59 59 59 59 59 59 60 60 60 60 60 60 59 58 49 36 20 17 24 32 56 60 58 57 55 56 53 40 34 25 18 16 10 6 10 17 20 16 18 20 20 24 27 24 24 23 23 20 20 20 17 21 25 23 22 21 20 22 23 25 27 27 27 31 34 35 36 35 37 38 41 42 42
58 58 57 57 57 58 58 58 58 58 58 58 58 59 59 59 59 59 59 59 59 60 60 60 60 60 60 60 50 46 33 12 35 21 53 53 56 59 54 55 56 51 38 29 21 14 9 7 5 14 19 16 15 16 17 17 18 23 23 20 20 19 15 20 16 16 16 20 18 18 20 21 21 22 25 27 28 30 32 30 26 25 25 31 33 32 25 23
57 57 57 56 57 57 57 57 58 57 58 58 58 58 58 59 59 59 59 59 59 59 60 60 60 60 58 58 52 38 24 17 18 21 51 53 51 55 57 52 58 50 35 23 17 15 10 6 4 8 11 17 17 11 11 15 15 20 22 15 14 20 21 14 14 15 14 16 18 19 20 19 20 20 22 23 26 28 29 26 25 24 24 23 22 22 22 22
57 57 56 56 56 57 56 57 58 58 58 58 58 58 58 59 59 59 59 59 59 59 59 59 59 59 56 40 35 35 31 17 17 23 44 52 47 48 52 38 34 30 23 18 13 10 12 9 3 4 5 15 24 16 33 14 27 30 25 20 15 18 24 14 13 13 15 17 19 19 18 18 19 19 20 20 21 22 23 23 23 22 22 22 22 21 21 20
57 57 57 56 56 57 57 57 58 57 57 58 58 59 59 59 59 59 59 59 59 59 59 59 59 59 58 37 23 20 11 14 17 20 20 20 20 23 28 18 24 19 15 14 16 13 11 11 5 3 17 12 11 24 31 32 23 30 17 15 14 16 22 14 13 13 15 17 18 18 17 17 17 18 17 19 20 21 22 22 21 21 21 20 20 20 19 18
57 57 56 56 57 57 57 57 57 57 58 58 58 59 59 59 59 58 58 59 58 59 59 59 58 59 49 32 37 20 11 15 17 20 20 21 20 19 21 18 17 16 16 14 14 12 10 12 13 11 11 8 9 21 30 30 26 31 27 23 19 17 15 21 15 13 14 16 16 16 17 17 18 16 15 19 20 20 20 20 20 20 19 19 18 18 17 16
56 56 56 56 56 56 57 57 57 57 58 58 58 59 59 58 58 58 58 59 58 58 59 59 58 52 34 30 20 11 15 15 27 18 19 22 21 18 19 18 18 16 16 14 14 16 14 13 15 12 35 27 18 28 32 30 32 20 17 27 23 18 18 16 15 14 14 14 17 17 17 17 15 15 15 18 19 20 19 18 18 18 17 17 16 15 15 14
56 56 56 56 56 56 56 57 57 57 57 58 58 58 58 58 58 58 58 58 58 59 59 59 59 43 29 23 14 12 18 20 35 18 20 20 20 22 23 22 20 18 16 15 15 17 18 18 18 36 24 30 26 27 34 28 25 23 30 22 18 15 13 15 15 14 14 13 17 18 18 16 15 14 16 17 19 19 19 18 17 16 15 15 14 13 12 12
55 55 56 56 56 56 56 56 57 57 57 58 58 58 58 58 58 58 58 57 58 58 57 57 56 40 38 30 18 18 24 32 34 20 20 21 20 22 21 20 21 20 18 15 15 20 30 27 20 13 29 28 29 27 37 27 28 34 21 21 17 18 14 15 14 14 14 14 17 17 19 17 15 14 15 17 18 18 17 17 16 15 14 13 12 10 10 9
55 55 55 55 55 55 56 56 56 57 57 58 58 58 58 58 58 58 58 57 57 57 58 57 51 39 35 22 17 18 19 33 23 19 19 22 21 18 21 21 21 21 25 18 22 29 25 23 19 23 41 26 32 35 21 23 35 21 21 23 21 17 17 14 14 13 14 15 16 19 16 15 13 14 15 16 17 17 16 16 16 15 14 13 12 10 9 8
55 55 55 55 55 55 56 56 56 57 57 57 57 57 58 57 57 57 57 58 57 58 57 55 43 42 36 22 17 25 48 31 18 19 20 22 21 19 18 19 18 19 19 19 20 26 20 32 23 23 31 39 38 34 28 22 21 23 22 22 24 20 25 15 18 13 11 14 15 23 18 15 13 14 15 16 17 16 15 15 15 14 13 13 12 11 10 9
54 54 55 55 55 55 55 56 56 56 57 57 56 56 57 57 57 58 59 59 57 53 53 53 46 29 31 16 21 39 25 19 17 20 22 22 22 20 20 20 19 18 17 19 22 23 20 19 20 39 36 32 29 22 23 22 20 21 20 18 19 19 21 20 27 17 19 15 16 21 18 13 13 14 14 16 16 16 15 15 15 14 13 12 11 10 10 10
54 54 54 54 54 55 55 55 56 56 57 56 56 57 57 57 57 57 57 56 53 52 37 41 36 37 22 17 18 17 18 19 20 20 21 28 23 21 20 19 17 15 17 22 19 25 23 16 41 34 38 22 23 29 23 19 16 21 24 18 23 12 16 19 25 26 25 18 16 22 18 14 13 14 14 15 16 15 15 15 14 13 12 11 10 9 9 9
54 54 54 53 54 54 55 55 56 56 57 56 54 57 55 55 55 55 52 55 55 51 48 43 40 34 21 15 14 17 19 17 19 20 18 21 27 22 21 18 17 16 15 16 18 14 16 18 26 26 24 31 26 22 19 18 22 19 20 20 19 17 16 17 22 29 25 27 18 15 14 13 13 13 13 14 15 15 15 14 13 12 10 9 9 9 9 9
53 53 53 53 54 54 55 55 56 57 57 55 53 54 56 55 51 50 39 39 45 39 38 32 33 24 24 19 17 18 20 20 21 18 16 20 24 25 22 21 19 15 26 18 21 14 25 27 34 29 24 21 19 25 22 24 21 22 21 21 21 18 16 23 23 29 29 20 20 16 14 13 13 13 13 14 15 15 14 14 13 12 10 10 9 9 8 9
53 53 53 53 54 54 55 55 56 57 56 54 50 51 45 42 43 40 38 36 34 35 34 35 23 37 19 16 17 20 23 21 17 16 18 21 23 23 21 17 31 18 30 30 33 27 37 26 26 23 24 22 19 22 21 20 21 23 26 25 22 23 24 23 24 28 29 23 16 15 14 13 13 13 13 14 14 14 14 14 13 12 11 9 9 8 8 7
53 53 53 53 54 54 55 55 56 57 56 51 50 47 37 37 36 30 33 37 36 37 33 36 31 17 16 19 19 21 20 18 18 14 18 23 21 23 22 23 25 29 26 36 33 40 36 25 24 25 21 18 20 24 25 26 26 26 26 25 22 25 19 22 22 28 30 25 16 16 14 13 13 13 13 14 14 13 14 14 13 12 11 10 9 9 8 7
52 52 53 53 54 54 55 56 56 57 56 53 50 38 41 45 48 46 44 26 38 43 37 31 29 16 20 19 21 23 23 15 15 13 19 22 18 20 28 19 21 25 30 25 29 31 25 22 23 19 20 23 22 32 28 27 27 27 24 23 21 24 25 24 27 29 29 23 17 15 13 13 11 12 12 13 13 14 14 14 13 13 12 10 9 9 9 7
51 52 53 53 54 55 55 55 56 55 56 44 47 41 43 49 47 48 39 28 31 43 41 35 20 16 17 18 19 23 13 15 17 14 21 22 21 26 32 19 25 32 23 25 24 24 22 22 17 22 25 25 22 23 21 23 23 22 25 22 19 25 22 19 25 28 24 24 18 17 14 13 13 13 14 14 14 15 15 15 15 15 12 11 10 10 9 8
51 52 53 54 55 55 55 55 54 54 46 45 45 46 49 48 47 47 44 36 31 38 38 36 29 19 19 17 19 21 15 18 18 16 24 22 22 30 28 28 29 21 22 28 25 21 21 23 21 25 28 23 26 23 22 18 17 25 24 23 19 20 21 24 22 27 27 27 22 18 15 13 13 12 13 15 16 15 16 15 15 14 14 13 12 11 10 9
51 52 53 54 55 55 54 55 44 44 45 47 45 48 48 49 48 49 46 34 34 33 42 43 43 18 19 21 19 31 19 23 20 18 24 21 23 29 30 34 33 23 27 30 30 21 23 22 23 24 19 18 23 22 22 22 16 16 25 24 21 21 21 26 25 21 20 17 21 19 14 13 12 12 13 14 14 14 14 14 14 13 12 12 10 10 11 11
51 52 53 54 55 54 55 53 42 47 46 40 45 47 49 48 51 50 41 36 22 26 43 25 24 18 23 17 18 34 37 24 21 19 26 23 27 28 32 25 33 23 31 32 22 22 24 21 22 20 18 20 20 19 24 23 19 17 23 27 25 21 23 24 25 21 16 16 21 22 14 12 13 12 12 13 13 14 14 14 13 13 12 12 11 10 10 9
52 53 54 54 54 55 54 42 39 50 48 50 48 47 47 49 53 51 42 27 22 31 27 35 27 29 35 21 22 33 12 22 20 19 23 27 27 40 32 23 29 32 36 33 29 23 27 24 22 17 14 17 17 16 20 22 22 16 26 28 25 23 22 22 23 22 19 25 25 21 18 12 12 11 13 13 13 14 14 13 13 12 12 12 11 11 10 10
52 53 54 54 54 54 45 46 46 43 38 48 45 47 47 49 53 49 38 12 15 34 20 28 26 33 23 27 20 19 20 28 26 22 23 21 29 36 27 28 28 28 28 26 18 29 28 25 22 19 17 15 16 17 23 27 23 23 28 28 23 22 22 23 21 19 20 17 16 19 22 15 14 11 13 13 12 12 13 13 13 13 13 12 12 13 12 10
52 53 54 54 54 54 54 46 47 43 44 47 49 48 52 50 45 42 31 11 22 31 38 22 40 26 25 29 21 27 30 29 25 32 26 26 20 33 21 28 26 28 32 27 21 28 30 26 26 20 17 15 21 19 23 26 20 24 23 26 26 27 26 26 19 17 16 14 14 12 20 15 10 11 11 13 12 12 13 13 13 13 13 13 14 13 12 13
52 53 54 52 53 57 49 48 42 47 47 50 50 50 50 45 40 27 15 10 31 20 29 28 22 24 28 27 25 22 21 27 32 33 30 25 21 21 34 35 29 29 28 29 27 31 25 32 32 24 19 20 20 18 26 24 25 28 27 25 25 25 23 22 19 15 13 11 14 15 16 17 14 13 14 11 15 20 15 14 15 15 14 14 14 14 16 16
52 54 53 52 43 44 47 40 45 50 50 50 50 50 47 45 32 15 3 15 32 27 36 29 26 34 26 22 19 24 31 28 27 29 23 27 23 23 24 29 26 27 26 28 27 31 34 33 28 24 32 21 18 19 30 29 29 27 22 13 13 12 20 16 13 14 12 13 13 12 17 19 11 14 14 17 21 21 18 15 15 15 15 16 17 18 17 17
52 53 51 49 49 53 39 45 48 50 51 50 51 48 45 29 22 12 18 39 23 20 25 23 30 27 27 28 25 24 22 26 28 26 19 18 20 18 19 18 21 18 14 13 20 27 23 23 25 32 29 18 17 16 14 28 26 18 13 13 13 11 11 8 8 9 11 11 10 11 17 10 12 13 14 16 17 18 20 20 16 16 16 17 17 18 19 19
52 53 52 50 47 41 45 49 50 50 50 51 49 44 34 14 6 16 17 22 19 30 28 33 30 25 26 25 21 26 29 24 27 24 27 22 20 22 24 21 24 22 14 18 13 14 18 24 19 23 27 20 18 13 13 13 16 15 11 11 12 10 7 3 5 5 9 10 11 10 16 10 13 13 14 14 16 17 18 18 18 17 17 17 17 18 18 19
52 51 53 49 48 45 46 48 50 49 49 49 43 45 22 13 9 20 19 22 25 33 33 30 28 29 24 17 26 26 24 29 25 22 22 21 18 17 19 21 22 21 24 18 8 10 12 9 14 18 14 21 18 17 20 18 19 17 20 10 12 12 7 4 5 5 7 10 10 12 10 11 13 13 13 14 16 17 18 18 18 18 17 18 18 18 15 18
50 50 54 49 51 48 48 49 50 49 50 44 39 25 14 12 15 18 22 22 27 28 28 32 30 28 26 26 27 28 25 21 26 23 20 17 15 16 19 18 22 23 24 18 14 16 18 11 20 25 21 19 20 25 23 21 21 15 16 15 12 12 12 11 10 10 10 8 7 12 12 12 12 13 15 15 15 17 18 17 18 17 18 18 17 16 14 13
51 54 53 47 45 46 48 50 48 49 48 46 20 18 17 22 19 28 27 32 31 26 24 28 27 20 13 21 25 21 33 22 22 21 19 20 20 19 23 25 20 22 20 19 15 13 16 9 22 25 20 13 14 23 24 20 9 9 12 12 9 12 12 12 13 9 4 8 2 12 12 12 13 13 13 13 15 15 16 16 16 16 15 15 15 14 13 11
52 49 44 45 44 48 46 49 49 47 46 30 20 17 24 26 31 31 32 27 30 29 26 13 17 19 14 17 15 18 21 28 18 18 12 23 16 22 22 23 24 22 21 21 20 17 14 13 23 20 20 21 21 22 26 21 20 13 12 10 14 18 18 13 7 4 4 1 -2 3 9 9 9 9 13 13 13 13 16 16 13 15 14 14 14 14 13 9
48 48 48 41 44 49 48 47 48 47 37 24 24 24 28 29 33 31 33 32 31 30 24 19 18 26 18 14 14 16 19 19 17 20 17 19 15 25 23 21 24 19 21 25 19 20 19 15 16 15 16 25 27 23 24 21 22 14 15 18 12 6 7 6 3 0 2 0 3 2 7 6 11 11 12 12 13 13 13 14 15 15 14 12 12 12 11 7
51 47 39 40 48 47 49 44 45 50 29 24 25 23 30 30 32 32 33 31 33 28 16 22 18 21 22 17 15 17 17 17 18 14 16 15 15 24 22 24 24 23 22 26 21 17 22 14 11 19 11 13 13 15 12 9 18 20 18 9 16 12 8 6 6 8 9 5 2 -2 3 3 10 11 10 11 12 12 12 11 15 16 15 12 10 10 11 10
47 47 36 48 49 52 47 48 33 29 24 23 26 27 31 29 32 33 31 33 28 27 19 19 26 17 21 19 19 19 16 17 16 17 20 19 18 27 21 20 22 23 25 28 26 24 17 11 11 4 22 18 8 10 9 9 11 11 11 11 12 11 13 11 10 11 8 3 1 2 2 5 10 11 11 11 11 11 10 11 11 11 12 11 9 9 9 7
44 43 43 47 46 51 52 36 23 22 26 24 28 32 33 30 31 30 36 32 33 34 26 25 24 21 24 19 18 23 15 16 17 18 19 20 17 18 26 20 26 24 25 27 25 19 16 7 10 9 7 2 9 17 14 10 8 8 10 10 10 11 9 7 -0 14 8 2 3 3 3 2 11 12 10 9 10 10 10 9 9 8 7 8 8 8 7 7
42 30 30 40 48 46 39 26 26 24 25 25 28 33 26 32 30 30 30 33 32 26 29 27 28 26 25 23 24 21 19 19 20 18 20 17 21 17 27 31 30 28 22 17 15 24 18 14 12 13 7 11 12 13 16 17 14 11 9 10 11 12 10 8 -1 4 8 6 6 8 -0 2 11 10 10 9 9 8 9 8 7 7 6 6 7 7 6 4
32 28 43 45 48 49 26 23 28 27 25 29 34 33 35 32 30 29 29 30 29 31 26 26 27 28 27 27 26 21 24 20 22 15 22 22 21 22 28 31 28 28 27 12 22 21 26 15 9 11 13 16 16 18 14 16 16 16 11 12 12 11 9 8 8 10 9 9 7 1 -5 1 11 11 9 8 8 7 8 8 8 6 6 6 5 4 4 1
34 31 37 38 49 44 28 23 22 26 25 30 28 29 34 31 31 30 28 29 28 25 27 27 29 28 26 28 22 22 24 16 22 21 18 21 19 30 30 30 29 22 20 20 19 23 15 2 7 6 1 13 11 10 12 16 19 7 10 12 13 13 13 12 12 11 7 3 -4 -5 -8 -1 10 11 8 8 7 7 6 7 7 6 7 5 4 3 1 -0
37 36 27 29 31 34 30 30 24 25 26 28 29 29 31 28 32 32 30 28 30 26 25 23 27 28 25 27 24 23 24 22 16 15 15 15 19 30 30 29 28 21 30 31 24 25 22 10 3 1 -4 -5 -4 1 6 10 10 7 14 14 13 11 11 11 2 6 7 0 -2 -1 2 -0 2 11 8 7 7 7 7 7 7 6 5 4 4 3 -2 -3
36 22 32 25 28 28 27 30 27 26 25 26 25 26 27 26 32 32 35 30 29 29 24 28 28 26 24 27 23 23 22 23 20 17 17 16 18 25 29 29 28 24 29 30 27 23 19 17 1 4 3 3 6 7 16 15 7 4 8 12 10 11 12 12 11 10 -0 -0 1 2 -1 -5 -4 -2 -1 5 7 7 6 5 5 5 5 4 3 1 -4 -5
34 29 28 25 29 25 27 32 31 29 26 29 21 24 23 25 28 29 33 24 28 29 29 28 28 26 25 26 23 22 23 24 23 18 15 15 17 17 29 28 27 29 28 29 30 20 17 15 8 12 8 9 8 11 13 14 6 6 8 10 10 10 10 9 3 -2 0 3 -2 -5 -5 -0 0 1 0 6 6 5 5 5 5 4 3 3 3 1 5 -6
28 30 34 33 32 25 24 27 32 30 31 25 23 27 26 27 27 21 29 28 28 24 25 27 27 27 27 27 27 16 21 23 22 18 20 17 21 19 20 27 22 27 29 20 18 12 9 10 15 11 7 10 9 6 6 13 7 8 6 8 8 10 10 8 5 7 4 0 -1 -2 0 2 2 1 5 6 5 5 5 5 4 3 3 2 -2 -4 -6 -7
32 31 33 35 27 25 30 31 34 29 27 26 25 29 26 26 24 27 29 27 29 25 28 18 25 26 27 24 26 19 24 15 15 22 20 18 20 19 14 20 23 21 9 11 14 14 12 13 14 12 9 9 8 8 12 9 5 7 7 7 8 8 10 10 11 11 7 6 5 4 4 2 3 5 6 7 7 6 5 5 4 3 3 3 -2 -5 -7 -6
30 33 24 29 27 20 24 24 29 28 25 27 24 27 29 28 28 30 29 30 21 25 29 25 27 26 27 27 26 21 23 24 19 20 20 20 19 18 13 9 11 14 11 13 14 18 17 12 11 10 8 10 10 9 8 6 3 4 6 8 8 8 6 7 10 9 10 8 5 3 4 4 6 7 5 6 6 5 4 4 3 3 2 1 -1 -4 -6 -5
39 42 31 22 23 24 24 25 27 27 23 24 23 27 28 27 26 28 28 30 29 29 30 26 27 26 27 27 26 26 28 27 26 25 23 22 16 18 15 10 8 13 13 13 14 17 8 6 11 11 5 2 5 5 6 5 2 3 6 6 7 6 6 7 7 9 4 4 5 4 3 4 3 6 5 5 4 4 3 2 2 2 2 2 -0 -2 -5 -6
39 40 44 36 22 23 19 24 25 27 24 28 30 30 31 29 29 30 25 32 30 29 29 30 30 29 26 27 27 28 29 28 24 24 20 18 10 13 12 13 10 11 10 13 15 12 9 7 11 6 4 0 -4 -6 -5 1 2 3 6 6 8 6 4 4 5 7 5 -2 2 1 2 1 1 5 3 3 3 3 2 2 2 3 3 1 -1 -3 -6 -8